Monroe, NC

8:43 AM EDT on September 25, 2017 (GMT -0400)
Monroe

Weather History for KEQY - February, 2013

Change the Weather History Date:

Monday, February 25, 2013

  Actual Average (KCLT) Record (KCLT)
Temperature  
Mean Temperature 40 °F -  
Max Temperature 43 °F 56 °F 82 °F (1930)
Min Temperature 37 °F 34 °F 7 °F (1967)
Degree Days  
Heating Degree Days 25    
Moisture  
Dew Point 26 °F    
Average Humidity 57    
Maximum Humidity 65    
Minimum Humidity 51    
Precipitation  
Precipitation 0.00 in - - ()
Sea Level Pressure  
Sea Level Pressure 30.14 in    
Wind  
Wind Speed 8 mph (NE)    
Max Wind Speed 13 mph    
Max Gust Speed 18 mph    
Visibility 10 miles    
Events      
Averages and records for this station are not official NWS values.
T = Trace of Precipitation, MM = Missing Value Source: NWS Daily Summary

Daily Weather History Graph

Daily Weather History Graph

Search for Another Location

Airport or City:

Trip Planner

Search our weather history database for the weather conditions in past years. The results will help you decide how hot, cold, wet, or windy it might be!

Date:

Astronomy

Feb. 25, 2013 Rise Set
Actual Time 6:56 AM EST 6:14 PM EST
Civil Twilight 6:31 AM EST 6:40 PM EST
Nautical Twilight 6:01 AM EST 7:09 PM EST
Astronomical Twilight 5:32 AM EST 7:39 PM EST
Moon 6:24 PM EST 6:27 AM EST
Length of Visible Light 12h 09m
Length of Day
11h 18m
Full, 100% of the Moon is Illuminated
Feb 25
Full
Feb 25
Full
Mar 4
Last Quarter
Mar 11
New
Mar 19
First Quarter

Hourly Weather History & Observations

Time (EST) Temp. Windchill Dew Point Humidity Pressure Visibility Wind Dir Wind Speed Gust Speed Precip Events Conditions
12:53 AM 43.0 °F 39.5 °F 27.0 °F 53% 30.05 in 10.0 mi NE 5.8 mph - N/A   Clear
1:53 AM 42.1 °F 37.7 °F 28.0 °F 58% 30.06 in 10.0 mi NE 6.9 mph - N/A   Clear
2:53 AM 41.0 °F 36.4 °F 27.0 °F 57% 30.06 in 10.0 mi NE 6.9 mph - N/A   Clear
3:53 AM 41.0 °F 37.1 °F 27.0 °F 57% 30.06 in 10.0 mi NE 5.8 mph - N/A   Clear
4:53 AM 41.0 °F 35.8 °F 27.0 °F 57% 30.08 in 10.0 mi NE 8.1 mph - N/A   Clear
5:53 AM 41.0 °F 35.8 °F 26.1 °F 55% 30.10 in 10.0 mi NE 8.1 mph - N/A   Clear
6:53 AM 39.0 °F 33.4 °F 27.0 °F 62% 30.12 in 10.0 mi ENE 8.1 mph - N/A   Clear
7:53 AM 37.9 °F 30.0 °F 27.0 °F 65% 30.18 in 10.0 mi ENE 12.7 mph 18.4 mph N/A   Clear
8:53 AM 37.9 °F 31.5 °F 27.0 °F 65% 30.20 in 10.0 mi ENE 9.2 mph 17.3 mph N/A   Clear
9:53 AM 39.0 °F 32.3 °F 27.0 °F 62% 30.22 in 10.0 mi ENE 10.4 mph - N/A   Clear
10:53 AM 39.0 °F 31.4 °F 27.0 °F 62% 30.22 in 10.0 mi NE 12.7 mph - N/A   Clear
11:53 AM 39.9 °F 33.4 °F 26.1 °F 58% 30.20 in 10.0 mi ENE 10.4 mph - N/A   Clear
12:53 PM 41.0 °F 35.8 °F 27.0 °F 57% 30.19 in 10.0 mi NE 8.1 mph - N/A   Clear
1:53 PM 41.0 °F 33.9 °F 27.0 °F 57% 30.16 in 10.0 mi NE 12.7 mph - N/A   Clear
2:53 PM 42.1 °F 35.7 °F 26.1 °F 53% 30.15 in 10.0 mi ENE 11.5 mph - N/A   Clear
3:53 PM 41.0 °F 34.7 °F 25.0 °F 53% 30.13 in 10.0 mi NE 10.4 mph - N/A   Clear
4:53 PM 41.0 °F 35.8 °F 24.1 °F 51% 30.14 in 10.0 mi ENE 8.1 mph - N/A   Clear
5:53 PM 41.0 °F 37.1 °F 25.0 °F 53% 30.15 in 10.0 mi ENE 5.8 mph - N/A   Mostly Cloudy
6:53 PM 39.9 °F 33.9 °F 26.1 °F 58% 30.15 in 10.0 mi ENE 9.2 mph - N/A   Overcast
7:53 PM 39.9 °F 34.5 °F 25.0 °F 55% 30.15 in 10.0 mi ENE 8.1 mph - N/A   Overcast
8:53 PM 39.9 °F 35.1 °F 24.1 °F 53% 30.16 in 10.0 mi Variable 6.9 mph - N/A   Overcast
9:53 PM 39.0 °F 33.4 °F 24.1 °F 55% 30.16 in 10.0 mi ENE 8.1 mph 16.1 mph N/A   Overcast
10:06 PM 39.2 °F 33.0 °F 24.8 °F 56% 30.09 in 10.0 mi NE 9.2 mph - N/A   Overcast
10:53 PM 39.0 °F 32.3 °F 25.0 °F 57% 30.13 in 10.0 mi ENE 10.4 mph 18.4 mph N/A   Overcast
11:53 PM 39.0 °F 34.0 °F 26.1 °F 60% 30.12 in 10.0 mi ENE 6.9 mph 18.4 mph N/A   Overcast